Find Rimsat G2

NORAD ID: 23108 Int'l Des: 1994-030 Owner: RIMSAT Country: US operational
HEOCIRCULAR

リアルタイム位置

3D地球を読み込み中...

Rimsat G2について

説明を読み込み中...

次回通過

Passes for default location (London). Set your location on the main map for personalized predictions.

高度履歴

Loading altitude history...

軌道要素

1 23108U 94030A 26107.19849531 -.00000300 00000-0 00000-0 0 9990
2 23108 14.0855 348.6419 0005108 293.4992 298.5360 1.00193259116849
Epoch: Apr 17, 2026 • Age: 15 hours

現在のステータス

高度 35828.1 km
速度 3.07 km/s
衛星直下点 14.01°N, 56.08°W
打ち上げ日 May 20, 1994
運用期間 31.9 years
タイプ other

技術仕様

分類 Payload
質量 2120.00 kg
乾燥質量 2000.00 kg
総質量 2120.00 kg
長さ 5.50 m
直径 3.30 m
スパン 9.50 m
形状 Cyl + 2 Pan
製造者 NPOPMR
バスタイプ Gorizont
フェーズステータス Unknown Active Status
所有者/国 RIMSAT/US

Most Searched